Theta_e
299 293 292 292 294 294 295 296 296 292 295 289 288 287 285 286 287 288 288 289 287 288 287 287 289 291 292 292 291 288 288 289 288 290 292 292 291 293 297 299 301 303 306 310 308 310 311 313 316 318 319 320 319 319 319 320 320 321 322 321 322 323 323 324 325 327 328 327 327 327 327 326 327 327 326 325 325 325 325 324 324 324 325 325 325 324
297 291 291 294 295 295 294 295 295 292 290 289 288 286 285 285 284 287 289 288 287 288 285 286 287 289 289 291 290 288 288 289 289 290 291 292 292 291 293 295 297 299 299 298 299 302 306 310 312 315 317 317 318 319 319 319 321 321 322 322 323 322 323 325 326 327 327 329 329 328 328 328 328 327 326 327 327 328 328 328 327 327 327 326 325 324
292 291 293 294 295 296 294 294 296 294 292 289 288 287 284 283 284 287 287 288 287 288 285 284 287 289 291 291 291 288 290 290 290 292 293 293 292 293 293 293 294 294 297 297 298 298 302 305 309 313 316 318 320 320 319 320 320 320 321 322 322 322 323 324 325 326 326 326 326 327 325 329 325 325 328 328 326 326 327 328 329 329 328 327 325 325
288 291 293 294 295 294 292 293 294 294 294 291 286 285 283 283 284 283 286 288 288 286 286 285 285 288 290 289 289 289 289 290 291 290 291 292 293 294 295 295 294 293 295 296 297 298 298 302 306 309 313 316 318 318 318 319 320 321 320 322 322 322 322 323 324 322 326 325 325 324 321 322 326 322 317 321 319 323 325 327 328 329 329 328 327 326
290 291 294 294 294 294 291 291 291 292 290 290 289 286 285 285 285 286 286 286 287 287 286 287 287 289 289 289 290 290 288 289 291 289 289 289 292 294 293 292 293 295 295 295 296 296 296 298 303 308 311 314 316 317 319 319 320 322 321 322 322 323 322 323 322 323 323 321 318 319 316 316 318 317 316 319 323 325 323 325 325 326 327 328 328 327
288 291 294 293 292 292 291 289 290 291 289 289 289 288 288 288 287 287 287 288 285 285 285 287 281 281 282 283 286 290 285 287 288 290 291 292 292 291 291 293 294 294 294 295 295 296 296 297 300 304 307 311 314 316 318 320 321 321 322 322 322 322 322 323 323 323 323 322 324 322 323 321 322 323 321 321 323 322 322 324 323 322 325 325 325 326
288 290 294 292 291 290 291 290 290 292 290 287 288 289 289 288 288 288 286 288 282 281 286 284 284 277 282 285 285 284 281 285 288 287 290 290 292 291 292 294 294 294 295 293 293 294 293 295 296 300 305 309 312 315 317 318 319 320 321 321 321 322 322 322 322 322 321 323 323 324 325 325 324 324 325 322 320 324 321 321 322 324 321 324 325 324
288 288 290 290 290 289 289 288 290 292 289 286 289 289 290 289 288 287 288 288 283 283 286 285 283 279 280 288 285 280 281 284 285 287 288 290 290 291 293 294 294 295 294 295 295 294 294 294 296 298 302 308 312 314 315 316 317 319 320 320 320 321 320 322 321 321 322 323 323 323 323 323 324 323 323 318 319 319 318 320 320 320 320 321 322 324
291 286 289 288 289 289 289 291 291 292 290 288 289 291 289 290 289 288 288 285 283 283 282 283 284 280 277 281 282 281 285 287 287 288 289 290 290 291 292 294 294 295 294 292 293 294 294 294 295 296 298 304 309 309 312 314 316 318 319 318 319 320 320 320 320 320 321 322 324 323 323 322 321 321 318 313 310 316 312 317 311 315 317 318 319 321
286 291 291 292 290 288 288 289 290 292 289 289 291 291 290 288 288 288 285 285 284 282 280 282 282 278 279 279 281 280 282 284 286 289 290 291 292 291 292 292 292 291 290 291 293 294 295 294 294 294 295 298 304 307 307 307 309 312 314 315 316 318 319 319 319 320 321 322 321 323 322 322 320 315 309 311 310 312 311 316 312 314 315 316 316 315
286 290 292 290 289 290 289 287 289 291 291 292 293 290 288 285 284 283 284 281 281 275 282 282 280 280 279 280 285 284 284 286 289 288 288 290 290 290 289 289 290 291 290 291 292 292 293 292 291 293 296 298 298 302 305 308 310 312 313 315 315 318 318 318 319 319 320 321 322 322 322 321 320 315 314 312 311 309 311 314 312 313 314 313 313 312
285 287 288 288 290 289 289 287 290 290 291 292 289 286 288 285 284 284 281 284 278 278 279 278 279 279 276 278 281 284 282 281 285 287 289 290 291 289 288 288 287 287 288 288 289 291 291 291 292 293 295 297 300 299 303 307 308 310 312 314 315 315 316 316 317 318 320 320 321 321 321 321 320 316 315 316 315 312 314 314 313 311 310 309 309 310
284 285 284 288 290 290 288 288 288 289 290 290 288 287 283 279 280 277 279 276 277 276 279 276 278 279 280 283 284 284 284 285 283 286 289 290 290 289 288 288 287 288 289 290 290 290 291 292 293 294 295 294 297 300 302 304 306 307 309 311 313 314 313 315 316 317 318 318 319 320 320 320 319 317 316 317 316 314 316 314 312 310 310 307 308 307
282 281 283 286 288 289 290 286 284 284 287 288 287 284 282 277 276 276 275 271 272 276 278 279 279 278 279 281 287 289 292 293 291 287 287 287 288 290 290 289 288 288 289 291 292 291 292 293 294 295 296 296 296 297 299 299 300 301 304 306 310 313 311 312 313 315 316 317 318 318 319 319 317 316 316 316 315 312 315 314 313 312 311 310 312 308
277 277 284 286 283 288 290 290 289 286 287 288 289 288 284 282 277 274 273 276 277 279 277 278 277 275 277 282 282 289 290 289 286 284 284 284 285 286 286 287 288 289 290 290 291 292 292 292 290 292 292 293 293 294 294 294 295 296 300 303 306 309 307 309 311 313 315 315 315 316 317 318 316 317 315 315 314 312 312 312 312 312 311 312 308 308
282 280 282 286 286 289 289 288 289 289 287 287 287 289 284 284 283 278 276 275 273 274 274 275 278 278 282 282 285 285 285 286 288 287 284 286 285 286 288 290 292 292 292 290 289 291 290 289 288 289 290 291 292 290 291 293 293 295 297 298 302 307 307 307 308 313 315 314 314 314 315 316 314 312 314 312 310 311 313 312 313 311 310 308 305 302
280 280 283 285 286 289 290 288 289 290 283 285 286 284 285 287 286 278 277 278 276 274 275 274 277 280 280 286 291 285 283 286 286 286 284 285 285 284 288 291 292 292 292 290 289 289 289 287 288 288 287 286 288 290 293 294 293 295 295 295 298 300 301 304 306 311 313 314 313 312 314 313 312 312 312 312 310 310 310 311 310 308 305 303 302 300
281 279 283 283 284 285 284 285 286 286 288 286 282 285 286 288 287 284 279 273 274 273 276 272 277 277 277 280 282 282 286 289 287 287 287 285 283 284 289 291 292 292 292 291 288 287 287 287 287 289 288 289 291 290 289 291 294 294 293 295 299 301 301 303 305 308 310 312 312 312 312 312 313 312 313 312 310 309 308 307 305 303 301 301 300 299
285 278 283 283 284 287 285 288 288 287 287 286 283 288 287 279 280 279 276 271 269 271 271 271 274 275 277 281 281 282 281 287 288 287 285 287 287 288 289 289 288 288 289 291 291 290 289 288 289 289 291 290 290 290 290 293 295 294 293 293 299 301 303 305 305 306 308 311 312 312 312 312 312 312 312 311 309 307 307 304 303 303 301 299 298 297
283 276 277 284 283 285 285 286 283 283 286 287 287 286 285 284 281 277 279 275 275 271 269 273 271 279 279 278 279 287 286 285 288 289 289 288 288 288 288 289 289 289 290 291 291 291 290 290 289 289 289 290 291 291 292 294 296 296 296 297 300 302 304 305 305 305 307 307 309 309 309 310 311 310 310 308 307 307 305 303 302 300 299 298 297 297
282 281 274 282 284 284 282 283 284 285 283 283 283 281 283 282 283 280 279 277 278 268 266 268 271 276 278 281 283 289 290 291 289 288 287 288 288 288 288 289 289 289 290 290 291 291 290 290 290 289 288 287 287 289 293 296 299 299 299 300 301 302 304 304 305 305 306 306 307 307 308 307 308 307 307 306 306 306 303 301 300 299 298 295 295 294
282 281 278 280 281 280 279 281 282 286 289 285 285 282 284 280 279 278 279 278 272 275 272 267 276 279 282 283 288 288 290 290 289 286 288 287 288 288 288 288 287 289 289 289 288 288 289 287 287 287 288 287 288 291 293 297 299 299 300 302 302 303 304 304 304 305 305 306 306 307 306 306 306 305 305 305 303 301 299 298 297 295 294 294 291 291
282 281 281 274 280 281 285 284 283 283 285 284 286 285 285 282 280 277 276 274 276 276 273 271 268 281 286 285 288 289 290 286 281 282 285 287 287 287 287 287 287 287 289 290 289 288 287 287 287 288 287 288 288 292 292 294 299 300 300 301 301 303 303 304 304 304 305 305 305 304 304 302 301 301 301 300 298 297 296 295 293 293 294 291 289 288
290 281 278 277 277 279 281 282 284 282 285 286 284 281 283 283 282 280 279 276 279 274 275 273 272 281 285 282 285 286 284 281 281 282 285 287 288 288 287 288 287 288 289 289 288 287 288 286 286 287 288 289 288 289 292 296 298 300 300 301 301 301 302 302 302 303 303 302 301 300 299 299 298 298 298 297 296 295 293 292 292 291 292 289 288 287
284 280 283 271 272 276 277 282 282 283 284 280 280 282 281 280 280 279 278 278 278 276 278 276 276 282 284 281 282 282 283 285 285 283 284 287 288 287 287 288 290 289 289 289 289 289 288 287 287 288 289 289 287 286 288 294 297 298 298 298 300 299 299 299 300 300 299 298 297 296 297 296 296 297 296 294 293 292 291 291 290 290 289 288 287 287
285 281 283 277 275 273 271 272 277 281 282 281 281 282 283 284 281 281 278 276 277 278 279 274 280 282 281 283 286 283 284 286 286 286 285 286 287 287 288 288 290 290 290 288 289 288 289 289 287 287 287 287 285 286 289 292 294 295 296 297 297 298 295 296 297 297 297 297 296 295 295 294 295 294 293 292 291 291 291 290 290 289 287 288 287 286
282 284 286 284 282 280 282 283 284 285 282 281 282 284 284 286 285 285 281 278 280 281 279 283 284 284 284 284 282 284 283 286 288 287 288 288 287 287 286 287 289 290 289 288 288 288 287 287 288 288 287 288 286 286 286 289 293 294 294 294 294 295 296 295 296 296 296 296 296 295 293 293 293 292 292 291 291 290 290 289 288 288 287 286 286 285
284 283 285 284 284 285 283 282 285 288 285 286 284 282 284 284 284 284 282 282 283 276 278 284 283 284 284 284 282 283 285 284 285 286 286 286 287 287 287 287 289 287 287 286 287 288 289 289 288 287 287 287 287 286 285 286 290 294 295 294 293 293 294 295 295 295 294 295 294 293 292 291 290 291 290 290 290 289 289 288 286 286 285 285 285 284
287 285 286 285 285 283 280 283 285 287 287 286 285 284 283 284 283 283 284 287 284 283 282 283 283 284 285 286 287 286 286 288 287 285 285 285 285 284 287 289 290 290 289 289 290 290 289 289 289 288 287 287 286 286 286 286 287 289 291 293 294 294 294 293 294 293 293 292 293 291 291 290 289 289 289 288 288 287 286 285 284 284 284 283 283 283
288 284 285 285 284 283 281 282 284 285 283 283 284 284 285 283 284 285 286 287 286 286 288 285 281 281 282 284 287 289 288 286 283 283 283 285 287 286 287 288 289 291 291 291 292 291 291 290 289 288 287 287 287 287 287 287 287 289 292 292 292 293 293 292 293 292 292 292 291 290 289 289 289 288 288 287 286 285 284 284 284 283 283 282 282 282
288 278 285 281 278 279 281 282 283 283 284 282 282 284 285 285 285 286 287 287 285 285 287 284 283 285 286 285 287 288 286 286 285 286 287 287 285 286 287 289 291 292 292 292 292 291 290 289 288 288 288 288 288 288 288 288 288 288 289 292 292 292 292 293 292 292 292 291 290 289 289 288 287 287 287 286 285 284 283 283 283 282 282 281 281 281
284 277 278 279 278 274 279 280 279 280 280 280 281 282 283 284 283 285 283 285 283 285 285 282 283 285 285 288 289 288 287 288 289 290 289 288 286 286 288 290 291 292 292 292 292 290 289 289 289 289 289 290 289 288 289 288 288 288 289 291 291 292 290 291 292 292 291 290 288 288 288 287 286 286 285 284 283 283 283 282 282 282 281 281 280 280
284 281 279 278 279 275 277 279 280 280 280 278 281 284 284 285 286 285 287 287 288 288 284 283 285 285 288 289 287 286 287 289 289 290 291 290 287 287 289 291 291 291 291 291 292 291 291 292 292 292 291 291 290 290 289 289 289 289 290 290 291 290 289 291 291 291 290 288 288 287 287 286 286 285 284 283 283 282 282 282 281 281 281 280 280 280
286 286 282 284 281 275 276 280 280 278 275 278 289 290 287 285 284 284 284 286 287 288 288 290 291 287 285 285 288 288 288 289 291 292 292 291 289 286 286 287 289 290 290 290 291 292 292 292 292 292 291 291 290 289 288 289 289 289 288 288 288 289 289 290 290 290 289 287 287 287 286 286 285 284 283 282 282 282 281 281 281 280 280 280 279 279
287 287 283 284 279 274 277 280 279 275 277 288 287 288 289 289 288 287 288 288 288 289 289 289 289 284 287 289 290 291 291 291 288 286 287 287 288 290 290 289 288 288 289 290 290 290 291 292 292 291 289 287 287 287 287 287 287 287 287 287 286 287 288 289 289 288 287 287 286 286 285 284 284 283 282 281 281 281 281 281 280 279 279 279 279 279
287 287 280 274 275 275 275 280 274 276 285 284 281 281 284 289 288 287 285 287 286 286 288 288 290 291 288 288 288 287 287 285 283 284 286 287 287 291 290 290 290 288 288 290 290 291 291 291 291 290 289 288 288 288 288 288 288 287 287 286 287 286 286 287 287 287 286 286 285 284 284 283 283 282 281 281 281 281 280 280 279 279 278 278 278 278
290 287 284 276 272 277 274 278 276 278 280 284 285 282 285 283 282 284 281 285 288 289 288 289 290 290 291 291 290 287 284 286 287 290 285 286 290 289 291 292 292 291 290 290 290 290 289 289 289 290 288 287 288 288 288 288 288 288 286 286 286 286 285 285 285 285 285 285 284 284 283 283 283 282 281 281 280 280 280 279 278 278 278 278 278 278
288 286 283 283 272 273 275 269 270 273 275 281 286 283 288 286 289 288 285 285 288 290 291 290 289 289 290 290 287 284 288 287 287 290 290 291 291 291 287 289 290 290 290 289 287 286 286 286 286 286 289 287 288 288 288 287 288 287 286 286 285 285 285 285 285 285 285 285 284 283 283 283 282 282 281 281 280 280 279 278 278 278 278 278 277 277
282 282 283 285 276 270 270 273 272 274 279 283 282 286 288 288 289 286 281 281 288 288 289 290 289 289 289 289 284 286 286 284 286 289 290 291 291 289 291 291 290 289 288 287 287 288 287 286 286 285 286 286 287 287 286 287 287 287 286 285 285 285 285 285 286 285 285 284 283 283 282 282 282 281 281 280 280 279 278 278 278 277 277 277 277 276
283 278 280 275 270 277 277 273 275 272 280 281 283 283 287 287 290 288 273 280 286 288 289 288 289 288 289 289 286 287 287 285 286 291 291 289 287 287 287 290 290 288 286 284 283 285 286 285 286 285 286 286 287 285 286 286 286 286 286 285 284 284 285 286 286 285 283 283 282 281 281 281 280 280 280 279 278 278 277 277 276 276 276 276 276 276
277 275 278 280 280 277 281 271 267 275 282 280 282 286 285 291 290 280 276 286 286 288 287 290 289 289 289 285 286 286 287 292 291 288 284 285 287 286 284 284 286 284 285 284 285 285 284 284 286 287 286 286 285 285 285 286 286 286 285 284 283 284 286 285 283 283 283 282 281 280 280 280 280 279 279 279 278 278 276 276 276 276 276 275 275 275
274 278 271 276 278 279 279 279 277 277 282 284 281 286 288 288 276 280 288 284 286 284 285 288 288 287 287 287 287 290 291 290 287 286 285 284 285 284 282 282 283 282 283 281 281 282 284 284 285 286 285 284 284 285 285 286 286 285 285 284 284 285 283 283 282 282 281 281 280 280 279 279 279 279 278 277 277 276 276 275 276 276 275 275 275 274
281 281 278 279 276 271 268 275 269 273 284 287 286 284 286 287 287 285 283 283 285 287 286 286 287 286 287 287 287 289 288 286 287 289 289 287 286 286 285 283 283 283 283 283 284 283 283 284 284 283 283 282 283 284 285 285 285 285 284 285 285 282 282 281 281 281 280 279 279 278 278 277 277 277 277 276 276 276 275 274 274 274 274 274 273 273
285 282 275 280 282 280 279 276 279 285 284 289 289 287 288 285 285 287 289 287 283 284 287 287 286 286 288 289 287 286 287 286 284 285 285 285 285 284 282 282 281 281 281 280 280 281 281 282 282 282 280 280 282 283 284 285 285 285 284 284 280 280 280 280 279 279 279 278 277 277 276 276 276 275 275 275 275 274 274 273 273 273 273 273 273 273
284 285 286 282 285 283 282 284 283 282 287 291 291 289 292 291 284 285 291 289 287 283 283 286 287 285 286 288 287 287 285 286 286 285 286 287 286 284 284 284 282 282 281 281 281 279 280 281 280 280 279 279 280 281 283 284 285 283 283 281 279 280 279 279 278 278 277 277 276 276 275 274 274 274 274 274 275 274 273 273 273 273 272 273 273 273
285 284 281 283 282 280 281 282 283 279 282 288 284 283 292 292 284 284 287 288 286 286 285 288 286 285 284 284 286 282 285 284 285 283 283 283 282 282 280 280 279 278 278 278 278 279 278 277 276 277 278 278 277 279 280 281 283 283 282 277 278 279 279 278 277 277 276 275 275 274 274 274 273 273 273 273 274 274 274 274 273 273 272 272 273 274
283 282 284 281 280 285 283 286 284 284 285 285 287 284 283 288 287 283 284 286 287 285 286 286 286 284 284 284 287 287 285 283 283 283 282 283 282 282 280 280 279 278 278 278 278 275 276 275 276 277 276 277 276 276 277 277 278 278 276 277 277 278 277 277 277 276 275 275 274 273 273 274 273 272 272 271 271 271 273 273 273 273 273 273 273 273
283 282 286 279 281 285 287 283 283 283 285 288 287 286 288 287 286 284 284 282 282 283 284 284 282 282 282 284 285 285 285 282 283 283 282 283 284 282 280 279 278 277 275 274 274 274 275 276 277 275 274 277 275 275 275 276 276 273 274 275 276 276 276 277 276 276 274 274 273 273 273 273 273 273 272 272 272 272 272 272 273 274 274 274 274 274
284 286 282 282 283 282 282 279 280 283 285 285 285 283 283 286 288 287 285 283 282 283 282 280 282 282 283 284 282 283 283 283 283 283 282 281 280 279 279 278 277 277 275 275 273 273 276 275 275 274 273 275 274 274 274 274 272 271 274 275 275 276 276 276 275 274 273 272 272 272 272 272 272 272 272 272 271 272 273 273 273 274 274 275 275 277
285 285 283 283 282 283 286 285 283 282 279 285 284 287 288 287 286 287 284 284 283 284 283 284 281 278 279 280 280 282 284 283 280 279 279 279 279 279 278 277 275 274 274 273 272 272 274 273 273 273 274 274 272 273 273 270 270 270 273 274 275 276 276 275 274 272 272 272 272 272 272 271 271 271 271 271 271 271 269 275 276 275 274 274 276 276
288 286 284 285 285 285 287 284 288 288 285 288 291 290 290 286 286 286 286 287 286 285 283 284 284 282 281 279 278 281 280 280 279 279 280 278 278 277 277 277 276 275 274 272 273 272 273 273 272 272 272 271 270 271 270 270 269 270 271 272 274 275 276 274 274 273 272 271 272 272 272 271 271 271 271 271 271 271 271 270 272 276 276 276 276 277
Wind_Speed
3 8 9 10 9 11 9 9 6 6 8 4 4 1 4 3 6 3 3 2 2 0 5 6 7 9 9 10 6 1 0 1 5 7 9 7 6 6 7 9 10 10 15 10 4 6 7 8 8 8 7 8 7 7 8 9 10 10 11 9 11 8 7 7 7 7 8 7 6 6 8 8 5 5 5 6 5 5 6 6 6 5 5 4 5 5
3 8 9 4 4 8 8 4 5 2 4 6 2 0 5 2 5 3 2 3 4 4 2 1 4 10 10 11 8 1 0 6 7 8 9 10 8 7 8 11 12 13 6 6 6 6 6 8 8 8 8 8 10 11 10 11 13 11 10 12 11 8 9 9 10 9 8 9 8 7 7 5 5 5 6 6 5 7 6 7 7 6 6 5 5 5
6 9 4 4 7 9 7 7 7 8 6 3 4 1 2 5 4 9 3 2 3 1 7 1 3 10 10 11 8 4 7 7 6 9 9 8 8 9 10 11 10 6 12 6 9 6 6 8 8 8 9 10 13 12 13 12 11 11 11 11 9 9 10 9 10 9 10 7 7 7 5 7 5 5 7 7 6 6 7 7 8 7 6 5 4 4
5 6 6 6 7 10 6 9 9 8 7 7 3 2 4 2 2 3 2 2 3 1 2 0 2 9 7 6 9 7 7 7 8 7 9 6 9 11 14 11 8 10 12 12 11 12 9 7 7 6 8 11 11 10 8 10 12 11 10 10 10 10 10 9 10 10 9 8 7 6 5 5 6 5 4 5 4 5 5 5 5 6 7 5 5 4
6 2 8 9 8 10 10 8 10 10 9 4 5 3 1 3 3 2 3 3 1 0 1 2 6 8 7 7 7 4 3 5 8 5 6 6 8 9 5 4 9 13 12 12 11 10 7 8 11 13 12 8 9 11 12 12 12 10 13 12 12 11 10 9 9 10 8 6 5 4 2 3 2 0 3 4 5 5 4 4 5 4 4 6 6 6
1 4 6 9 6 7 8 8 10 9 7 5 3 5 3 2 3 3 3 2 3 2 3 1 3 6 4 5 8 10 2 4 4 4 10 11 9 6 8 13 10 9 8 11 12 12 9 10 8 7 7 9 10 11 12 11 12 11 11 11 10 9 8 10 10 10 9 9 9 7 7 7 6 7 6 7 7 5 4 4 3 4 5 4 4 6
4 2 8 8 8 6 8 8 8 9 7 6 6 9 5 4 3 2 2 1 2 1 1 2 8 7 5 5 5 4 3 8 7 5 9 8 9 7 11 12 11 11 11 9 9 9 7 9 8 10 10 11 11 13 11 10 11 12 11 11 11 10 9 9 9 9 9 9 9 11 12 11 10 10 8 5 4 5 4 4 5 4 3 4 5 5
3 5 5 6 8 9 6 8 6 11 8 6 3 10 8 6 5 7 4 4 4 1 3 1 1 4 6 10 4 0 2 7 8 7 10 11 10 10 11 13 12 12 11 11 12 12 11 8 10 13 13 12 15 13 9 9 9 12 13 11 11 10 10 9 9 10 11 11 10 11 11 10 10 10 9 7 5 5 6 6 5 4 4 5 5 6
12 6 9 10 9 10 14 9 7 12 8 2 5 9 6 8 7 2 3 2 0 2 9 1 0 2 6 7 4 1 6 8 9 8 9 9 10 12 13 14 13 13 10 8 9 11 12 12 12 11 10 11 8 6 8 10 11 10 9 10 9 10 9 8 10 11 11 11 12 11 10 10 8 8 6 5 4 6 4 5 3 4 4 5 5 5
2 12 16 15 11 11 4 5 8 11 8 1 5 7 5 6 3 2 3 2 0 1 11 6 2 4 9 4 3 2 2 7 9 10 11 11 11 10 10 11 10 7 6 7 11 12 11 10 9 8 6 4 8 7 6 6 5 6 6 8 9 10 9 9 10 11 12 12 10 10 10 12 9 6 4 5 5 5 5 6 5 4 4 4 3 3
1 4 3 5 8 5 6 3 6 9 3 5 6 6 5 5 2 3 3 3 1 4 12 3 2 3 8 4 8 6 7 7 9 8 6 8 9 10 8 9 8 7 6 7 9 10 10 5 5 4 8 8 4 6 6 7 8 7 8 9 11 11 9 9 11 11 12 11 11 11 12 12 11 9 8 7 6 5 5 6 5 5 5 4 4 3
2 2 5 3 3 3 5 2 4 3 6 7 2 4 5 1 1 2 2 1 2 10 3 1 1 3 8 4 6 7 3 3 6 7 9 10 11 7 6 6 6 5 5 6 7 9 7 6 5 3 6 6 7 5 7 7 7 9 9 9 11 9 10 9 10 11 12 11 12 11 12 12 11 11 10 10 10 9 9 8 7 4 4 4 4 4
0 3 2 1 3 10 6 6 1 3 2 5 6 6 7 2 1 4 0 4 8 6 1 1 2 1 16 9 7 6 9 6 6 10 12 11 12 8 7 7 5 4 5 7 7 7 6 7 7 7 6 5 6 8 7 8 7 7 7 9 11 11 9 10 10 12 12 11 11 11 11 11 10 10 10 10 10 9 9 7 7 7 6 5 5 4
5 1 0 3 3 5 10 12 6 3 5 8 10 8 8 4 4 7 3 2 5 5 3 0 1 6 3 6 13 15 16 16 13 9 11 10 11 11 8 7 6 7 6 7 6 6 6 7 6 6 6 6 6 5 6 5 5 5 6 6 9 10 8 7 8 10 10 11 11 10 11 10 9 10 10 9 9 9 8 8 9 9 8 8 8 8
8 5 9 9 4 3 8 9 8 4 12 11 4 10 8 8 6 9 5 11 8 7 1 3 1 8 4 4 3 13 9 8 7 6 6 7 9 8 7 9 11 10 8 5 5 5 5 5 4 4 3 4 4 4 4 4 4 4 6 6 8 8 7 8 9 9 10 10 9 9 9 9 8 9 9 8 8 9 8 7 9 8 8 8 7 8
11 2 3 1 1 7 10 3 6 7 5 2 3 4 4 10 5 3 5 3 2 3 2 2 7 3 5 4 7 6 8 9 10 10 5 10 6 5 7 9 9 8 7 5 5 5 4 4 3 3 2 2 1 2 1 3 4 4 6 5 7 8 7 7 8 8 9 9 8 8 9 10 9 8 7 6 5 6 8 9 9 9 8 6 7 5
3 5 1 2 3 10 12 6 2 7 8 4 5 8 4 3 5 5 3 1 1 3 9 2 7 7 7 9 12 3 2 8 7 8 6 8 6 4 8 9 8 7 6 5 4 4 4 3 3 3 3 2 2 2 4 4 4 5 5 5 5 5 4 6 7 8 8 8 8 9 9 8 8 8 9 9 8 9 7 8 7 8 6 6 7 8
12 3 1 2 5 1 1 0 3 2 3 8 6 8 3 3 4 5 6 1 1 6 7 3 9 4 2 10 3 6 9 12 9 7 7 6 5 6 9 9 8 5 5 4 3 3 3 3 3 4 3 4 5 5 4 5 3 3 4 5 6 5 7 7 7 8 8 9 9 9 9 9 9 9 9 9 9 8 8 6 7 7 7 7 7 7
7 5 1 1 1 1 1 3 2 2 2 5 5 4 8 5 5 1 3 4 4 6 5 3 1 4 8 9 5 5 3 7 9 6 2 6 6 8 9 9 7 5 5 5 4 3 3 3 3 3 4 3 3 3 3 2 2 2 3 3 5 7 7 7 6 6 6 7 7 8 9 9 8 7 8 7 8 9 10 10 9 9 9 8 8 8
2 7 2 1 3 2 1 4 12 4 2 1 3 2 1 2 1 4 6 2 5 5 1 9 2 11 7 6 6 9 9 8 10 12 12 9 6 7 7 8 7 5 5 4 4 4 3 4 4 4 3 3 2 2 2 2 1 3 4 4 4 4 3 4 5 5 6 6 5 6 5 6 7 8 9 9 10 9 9 10 10 10 9 10 8 8
4 2 6 1 1 2 5 4 10 10 8 3 3 4 1 0 2 4 1 5 5 4 3 2 6 8 7 8 8 10 13 14 11 9 7 6 7 7 5 6 6 6 5 4 4 4 4 4 4 4 3 3 3 2 1 2 3 2 2 3 4 5 5 5 5 5 5 5 5 7 8 7 7 8 7 9 9 10 9 9 9 9 9 9 8 9
3 1 9 2 4 5 5 2 3 10 10 6 9 8 8 7 4 6 9 4 1 1 5 1 13 5 6 3 9 11 12 14 10 3 7 5 6 7 6 5 5 6 5 4 4 4 4 4 4 3 2 1 1 1 2 2 1 2 2 2 2 3 3 4 4 5 6 6 6 8 8 8 6 8 7 9 8 9 9 9 8 9 9 9 7 8
6 3 9 4 4 4 2 1 2 1 1 5 7 7 7 4 5 4 6 4 1 2 4 2 1 16 8 7 11 11 10 4 2 1 6 5 5 6 6 6 6 5 6 4 4 4 4 4 4 3 3 3 3 2 1 2 2 3 3 3 3 4 3 4 4 3 5 6 6 7 6 6 6 7 8 9 7 8 8 8 8 8 10 9 8 5
5 5 7 2 2 4 4 1 0 2 1 1 1 3 5 6 5 5 2 5 5 1 0 1 5 8 0 3 8 8 7 5 4 3 7 8 6 6 5 6 5 5 4 3 3 3 4 3 2 2 3 3 3 3 3 3 2 3 3 4 4 4 4 4 4 4 4 5 5 6 7 6 6 8 8 8 7 9 7 8 7 6 9 9 8 9
7 3 10 4 4 3 6 2 2 1 0 1 3 2 3 5 5 3 5 2 1 6 7 4 15 10 3 1 3 4 5 8 9 5 6 8 7 4 6 5 4 4 4 3 3 3 3 2 3 4 4 4 4 3 3 4 4 3 3 3 4 3 4 4 4 5 5 6 8 6 7 7 7 8 8 8 7 8 9 8 8 7 9 9 9 8
3 5 11 10 12 12 8 7 14 15 11 3 1 6 7 12 10 7 5 3 7 8 11 6 15 7 4 2 2 2 4 7 5 5 3 7 6 8 7 5 4 4 5 4 4 3 4 4 3 4 5 5 4 5 4 4 4 4 3 4 3 5 3 4 5 4 6 6 8 7 7 7 7 7 8 8 8 9 9 8 8 8 6 9 10 8
3 2 5 9 15 17 21 10 7 15 6 8 9 12 11 7 11 7 3 5 16 8 9 18 21 4 2 1 3 3 3 7 7 3 3 3 5 6 5 5 4 4 4 4 4 4 3 5 7 7 6 6 5 5 5 4 4 3 3 3 2 3 5 5 5 5 6 7 6 7 7 6 6 7 7 8 8 7 8 8 8 8 9 7 10 10
4 4 11 10 11 13 1 2 7 18 17 17 12 10 8 10 9 10 11 18 5 9 11 12 2 10 8 2 5 5 6 6 7 6 6 5 4 3 3 4 5 4 4 4 5 5 8 8 6 7 8 6 7 5 4 4 4 5 5 5 4 4 4 5 6 6 5 6 6 5 7 6 4 6 6 7 7 8 8 8 7 7 7 8 9 9
10 11 12 10 13 5 2 7 9 11 12 9 12 12 12 12 11 14 18 21 7 11 20 5 8 12 7 8 7 7 7 8 6 4 4 4 5 4 3 3 5 6 6 5 8 7 7 10 9 8 7 8 5 6 6 5 5 4 4 4 6 6 6 5 5 5 5 4 6 5 5 7 5 5 7 7 8 8 8 8 7 7 7 7 8 7
8 9 9 12 11 4 3 3 6 11 3 4 9 11 12 12 17 21 22 20 14 16 19 9 4 4 3 6 7 9 8 5 3 3 4 5 6 3 2 4 5 8 8 9 10 9 8 9 7 7 7 7 8 8 7 7 7 7 7 7 5 6 5 6 6 6 6 6 6 6 6 7 7 7 7 8 8 8 8 8 8 8 8 8 8 8
6 2 7 3 4 0 2 3 2 4 7 6 5 9 12 15 19 22 19 14 9 14 18 7 9 15 6 6 7 9 3 0 4 7 8 7 5 4 4 7 8 10 11 10 9 8 6 7 8 8 9 10 10 10 9 9 8 6 6 7 7 6 5 6 7 6 7 7 6 7 7 7 7 7 8 7 8 8 8 8 8 8 8 8 8 9
4 2 2 6 6 2 1 4 4 5 4 3 4 8 15 19 18 14 10 7 6 18 11 5 12 19 2 8 11 5 4 6 9 9 6 5 6 5 6 9 10 10 9 9 7 6 7 9 9 10 12 12 11 10 9 9 7 8 10 8 8 6 5 5 6 6 5 5 7 6 7 7 8 8 8 8 9 9 8 8 8 9 9 9 9 8
5 6 6 5 7 4 2 4 8 5 4 2 9 17 23 15 10 5 11 13 18 16 9 14 23 2 9 8 5 3 7 11 11 10 10 9 6 7 9 11 11 10 9 9 9 9 9 11 11 12 12 9 9 11 11 9 9 12 11 9 7 6 7 7 7 7 7 7 8 8 8 8 9 9 9 8 8 8 8 9 9 9 10 10 9 9
7 8 4 5 7 3 0 7 3 7 6 13 20 16 13 15 15 13 14 18 17 10 15 16 16 6 2 4 9 11 11 12 14 13 9 7 7 8 11 10 11 10 9 8 10 10 9 7 8 8 8 7 7 6 6 9 10 6 5 7 6 8 8 8 7 7 8 8 8 9 9 9 9 9 9 8 9 9 9 9 10 8 7 8 8 9
16 12 7 5 6 6 6 6 7 10 12 22 2 7 15 16 17 24 25 19 17 18 18 13 11 4 10 10 13 14 13 10 2 4 6 7 8 9 11 12 12 11 13 12 9 9 10 10 8 7 5 4 4 5 6 6 5 5 6 7 8 7 9 8 8 8 8 9 8 8 9 9 10 10 10 10 9 9 9 10 9 9 8 8 9 10
15 14 6 3 5 5 4 9 9 16 11 3 2 2 3 13 19 14 14 12 8 7 12 17 20 15 13 13 8 4 1 2 4 5 8 8 7 11 10 11 11 10 11 11 11 12 10 7 6 5 5 3 6 7 8 9 7 8 8 6 8 8 8 9 9 8 8 9 10 10 10 11 11 11 11 11 10 11 11 10 10 11 8 8 7 6
18 11 9 5 0 10 6 11 10 5 7 8 9 6 11 9 6 11 11 16 15 15 17 20 19 14 13 12 12 3 2 1 5 10 4 8 12 12 12 11 9 10 10 11 9 9 3 2 4 5 5 5 7 8 9 8 9 9 8 9 8 9 8 8 9 10 11 11 11 11 11 11 12 12 12 11 11 11 10 11 10 8 7 9 8 9
7 15 7 12 3 6 8 1 1 4 9 17 9 3 6 6 10 9 6 12 6 14 15 15 15 15 16 14 6 3 2 3 11 14 8 11 15 10 5 9 10 10 9 8 5 4 5 4 3 4 6 7 8 9 7 8 9 9 9 9 8 10 9 10 12 11 12 12 11 10 10 10 11 11 11 11 12 11 9 7 6 8 7 10 10 9
4 2 6 13 6 5 3 8 8 11 16 9 6 11 9 10 14 9 4 11 11 14 13 17 16 13 13 11 5 8 6 6 14 11 10 13 8 5 11 12 10 10 8 6 6 7 6 5 4 4 4 5 7 6 6 8 10 9 9 8 9 8 10 12 12 12 12 9 7 8 8 8 7 8 9 10 9 9 10 9 9 7 6 6 7 8
8 6 7 4 4 8 9 6 9 4 9 6 9 6 13 12 14 9 2 13 7 13 12 12 14 13 13 12 10 10 11 11 10 11 9 8 6 7 6 9 8 6 5 4 4 5 5 1 2 2 4 7 6 4 7 8 9 9 9 8 7 9 11 15 13 6 5 6 7 7 7 6 7 7 8 9 7 7 8 7 8 8 8 7 7 9
4 0 5 13 10 7 9 4 2 7 8 5 7 9 10 14 13 9 14 15 7 11 10 12 13 13 12 7 10 9 12 14 11 5 2 1 1 4 5 5 6 3 5 4 6 4 3 3 4 4 4 3 3 5 6 7 7 8 6 6 7 13 14 5 4 6 7 7 8 8 8 7 8 10 8 7 9 8 8 7 9 9 9 9 8 8
6 9 2 6 13 14 11 11 9 5 8 11 2 13 15 8 5 19 10 5 12 4 5 10 11 8 8 12 11 11 11 8 6 4 3 3 6 3 2 3 4 3 1 1 3 2 1 0 1 0 0 1 5 6 7 8 8 7 7 7 12 11 3 4 5 5 6 7 7 7 8 8 7 8 8 8 9 10 8 6 6 8 9 8 9 10
14 10 9 10 2 6 4 4 1 7 10 17 14 1 7 13 13 5 5 2 2 9 10 6 7 6 10 9 10 11 8 2 6 9 9 6 4 6 5 4 4 4 2 1 1 0 1 2 2 3 3 3 5 6 7 9 9 7 6 11 8 3 5 5 7 7 7 6 7 6 6 5 7 7 6 7 7 8 9 7 8 7 8 9 9 10
9 11 6 8 10 15 13 11 11 10 6 17 23 15 12 5 3 10 7 6 1 4 8 7 6 8 11 10 11 9 9 6 4 6 6 7 7 6 4 5 3 1 2 1 1 1 2 3 2 2 2 3 4 5 6 9 9 8 9 10 3 5 5 6 6 7 8 8 8 7 7 7 7 7 6 8 8 8 9 9 8 8 8 9 10 10
11 13 10 16 10 9 11 11 1 3 11 14 10 5 12 8 3 4 10 8 8 5 4 6 10 8 10 11 8 9 6 7 8 5 7 9 6 5 6 5 3 2 2 2 1 0 1 3 3 3 2 2 4 5 6 6 8 7 9 4 6 6 7 7 7 8 8 8 8 9 8 8 8 8 8 8 10 11 10 9 10 10 7 8 8 8
0 4 2 6 3 1 2 2 0 1 3 9 3 1 10 10 3 1 5 7 4 7 11 9 7 9 9 5 8 2 7 6 7 5 7 6 5 4 2 1 1 1 1 0 1 1 1 1 2 3 4 2 3 4 5 5 6 9 5 5 6 7 8 9 9 9 9 8 8 8 8 9 7 7 8 8 8 9 10 12 12 10 10 8 8 8
2 2 2 3 1 7 10 8 6 2 0 6 6 1 2 2 7 4 3 5 6 8 11 5 4 6 8 9 9 9 9 6 6 6 5 5 6 6 4 4 3 3 3 3 3 3 2 3 3 3 2 3 2 3 3 4 4 3 4 6 6 7 8 8 9 8 8 9 8 7 8 10 8 7 6 6 6 6 7 7 8 9 10 10 10 9
4 4 5 1 6 12 13 3 5 6 8 9 9 6 5 6 3 5 2 1 0 1 2 4 4 5 7 8 10 8 6 5 6 6 5 7 7 5 5 4 4 1 2 2 2 2 2 2 3 3 3 4 3 3 4 4 3 2 4 4 5 6 7 8 9 10 9 9 8 8 8 9 10 10 9 9 9 9 8 7 8 10 12 13 12 11
5 9 8 9 8 3 2 1 0 3 2 6 6 5 3 4 8 8 6 2 1 4 2 2 1 5 8 5 5 5 4 6 7 5 5 5 3 3 3 3 4 3 2 1 1 1 2 2 2 3 4 4 4 4 3 2 2 3 5 6 6 8 9 8 6 6 6 7 7 8 7 8 9 9 9 9 8 7 7 9 10 8 6 3 3 6
8 12 5 7 7 9 15 12 12 9 4 7 5 10 11 11 8 7 4 3 3 4 5 6 2 2 2 2 3 4 6 4 3 3 4 2 2 1 1 1 1 0 1 0 1 0 0 0 2 3 4 3 3 4 4 4 3 3 4 5 6 7 8 7 7 6 7 7 8 8 8 7 7 7 7 8 8 8 3 2 3 3 5 6 2 1
14 13 11 12 13 14 9 6 12 8 6 10 16 16 14 6 7 7 10 11 11 5 4 5 4 2 3 3 1 3 3 1 1 2 0 0 1 1 0 0 0 0 0 0 1 0 1 1 1 1 2 3 2 3 3 3 2 3 3 4 5 7 7 8 8 7 7 7 8 9 9 8 8 7 7 7 8 7 7 5 2 4 4 3 3 3
Wind_Direction
125 166 188 195 186 181 181 183 137 177 147 124 110 144 246 272 287 283 283 291 332 50 230 210 229 244 255 253 261 132 16 255 262 251 246 249 239 232 233 232 236 235 236 244 230 230 228 224 219 218 208 213 213 213 208 206 208 206 203 192 208 198 187 184 189 196 197 200 205 213 211 213 198 197 202 212 205 199 201 196 196 191 193 193 196 201
120 183 206 171 159 159 172 156 144 113 97 142 136 136 281 187 277 256 332 341 323 169 296 265 252 262 257 269 261 213 87 260 230 241 251 247 235 236 233 239 234 239 272 279 265 241 228 222 215 207 207 204 208 216 206 208 211 208 204 206 207 185 192 194 194 194 199 202 205 200 209 201 191 192 203 216 204 206 200 197 193 192 192 195 196 199
194 208 159 172 152 149 151 154 179 183 179 151 182 181 278 277 245 283 270 329 327 93 257 16 221 260 261 259 273 183 221 244 223 212 229 225 237 233 234 240 246 254 254 250 245 242 227 225 220 207 209 211 213 213 207 211 210 209 209 212 204 197 193 198 195 191 203 200 204 199 197 193 204 205 206 212 207 196 199 196 189 185 181 180 194 203
183 221 193 163 140 140 153 162 174 195 210 196 143 174 218 246 25 309 334 9 355 121 315 25 260 277 276 267 263 237 207 239 240 229 245 214 231 233 231 228 228 236 248 249 239 236 227 218 220 216 216 215 210 212 210 212 213 210 211 209 206 205 199 197 197 199 201 195 195 200 192 202 196 193 204 210 203 195 197 205 194 190 180 176 193 195
177 168 165 148 152 148 162 172 170 183 211 206 179 153 160 252 246 200 304 309 278 236 104 315 313 285 255 269 290 271 227 265 276 267 272 261 240 249 291 292 222 229 230 241 245 242 224 215 217 210 215 207 207 208 210 209 208 208 208 208 205 204 201 199 195 196 189 170 167 160 114 124 141 63 169 196 211 199 194 188 184 194 183 188 193 206
203 193 127 141 156 152 151 178 189 168 211 214 225 177 192 208 267 317 323 355 8 341 358 68 324 271 298 271 241 264 352 270 270 254 255 251 250 251 251 247 247 243 237 232 238 237 221 220 227 230 223 210 212 214 215 208 209 206 209 208 206 205 200 201 198 190 179 184 183 176 182 178 195 208 192 205 199 183 193 195 172 190 190 196 202 215
177 181 156 157 155 164 175 187 195 167 188 181 238 169 192 228 248 257 297 1 314 226 301 53 210 271 319 296 247 268 332 278 280 269 266 263 258 241 238 243 243 236 240 236 247 251 236 223 216 223 215 211 212 220 210 208 207 206 209 205 201 201 203 200 193 182 178 188 194 197 201 203 205 213 221 188 175 176 180 171 185 189 189 197 203 219
117 125 136 145 149 167 180 203 200 173 162 216 175 159 174 206 227 248 219 202 240 280 293 57 129 240 281 259 248 264 319 288 297 278 263 258 251 245 240 242 239 238 231 230 230 233 234 229 211 220 217 211 213 214 203 206 203 207 208 200 199 201 202 196 184 179 183 190 196 201 207 208 211 211 211 173 179 170 161 179 195 185 193 199 207 216
151 172 172 174 176 179 201 188 159 173 171 212 151 145 162 189 215 189 182 199 228 33 288 300 240 285 244 269 315 15 277 278 271 270 268 258 246 243 240 241 240 237 237 230 240 235 228 224 222 222 219 220 223 214 203 206 206 208 207 205 201 202 198 194 184 184 189 194 195 199 201 207 215 211 198 160 151 167 167 183 185 199 201 197 203 211
290 182 188 174 172 198 133 149 163 161 173 225 109 80 79 73 73 164 159 143 325 232 255 223 178 231 271 273 323 338 228 260 263 262 255 251 245 241 244 252 252 256 254 236 236 241 237 228 228 226 240 232 216 212 211 209 202 205 199 203 200 206 196 193 189 187 192 196 193 198 201 206 207 190 157 163 160 166 166 179 182 182 179 174 173 188
180 346 150 136 196 184 156 171 157 168 133 141 100 84 49 44 52 24 64 100 72 257 254 178 269 172 291 239 207 189 219 197 238 265 269 262 265 257 250 254 258 261 258 254 251 251 250 244 234 217 216 224 223 211 200 202 199 196 198 199 201 204 196 192 192 189 195 195 196 201 200 202 201 187 172 170 173 150 161 170 171 176 179 168 162 150
28 32 125 240 119 116 122 99 8 139 143 131 133 122 116 57 16 41 346 31 182 251 311 311 122 139 227 294 259 235 271 233 219 239 256 266 258 265 268 261 264 265 270 275 271 265 262 267 259 222 228 220 218 204 207 203 196 197 200 196 204 203 196 191 192 193 198 194 199 204 200 201 200 183 182 186 184 178 178 173 170 163 147 150 140 149
23 154 257 307 275 145 160 131 13 85 130 140 127 125 146 224 82 266 51 240 221 226 328 31 180 24 241 228 273 269 254 271 220 219 235 246 265 269 271 269 264 272 290 283 273 268 260 242 236 226 231 219 217 210 206 205 200 201 199 198 201 208 195 193 191 196 196 195 200 199 201 203 194 188 190 190 188 181 178 170 156 158 164 151 145 166
269 269 220 211 79 242 156 169 159 154 206 163 170 154 142 155 168 224 222 339 317 287 257 219 95 272 284 292 235 252 263 247 247 229 238 246 254 265 269 290 291 281 270 272 266 261 254 243 234 225 216 212 212 214 208 204 198 200 200 201 203 212 195 195 192 195 195 201 200 198 200 198 186 192 191 193 184 181 178 171 170 171 167 170 173 169
134 210 235 156 216 176 175 187 186 164 161 190 116 165 176 161 169 196 173 209 215 215 261 283 77 233 127 251 242 232 257 290 287 248 248 250 254 265 282 283 281 277 273 252 254 252 253 259 258 248 238 225 217 211 210 204 204 187 203 198 206 209 201 192 197 193 199 201 199 199 199 195 188 191 191 191 183 173 172 176 171 177 172 172 171 167
197 174 292 212 282 149 176 188 136 110 118 252 188 68 152 215 108 158 205 153 204 241 278 212 210 192 188 265 283 232 262 275 273 275 256 268 257 262 280 268 264 266 268 254 247 264 270 266 289 288 276 261 236 236 222 203 193 194 210 207 209 210 200 199 197 201 199 201 196 194 194 196 190 188 184 179 173 175 175 173 174 173 172 164 147 133
68 243 339 325 89 160 180 141 212 165 178 203 119 205 205 122 117 86 52 17 70 52 251 133 306 283 302 306 283 284 298 272 273 264 261 266 271 277 266 267 260 255 261 265 250 250 268 304 289 258 262 263 241 235 215 210 198 196 197 199 213 224 220 205 204 201 199 198 192 197 195 190 186 182 181 177 175 173 172 167 165 160 151 137 143 143
155 159 5 88 166 324 41 202 137 19 157 115 190 215 116 91 108 148 217 0 162 208 254 75 237 295 337 274 322 332 279 275 274 264 270 268 271 282 261 257 261 263 253 258 260 259 261 263 270 273 251 231 219 209 219 234 217 218 200 189 195 199 203 213 205 204 199 195 197 193 195 191 187 182 180 172 170 162 152 148 137 127 136 150 144 138
126 80 261 337 119 331 4 108 51 11 3 142 190 204 147 213 225 294 108 225 183 237 270 296 298 257 209 238 331 305 259 264 283 295 297 278 265 246 256 268 272 273 279 264 253 259 263 256 256 254 248 258 254 240 241 257 200 231 242 219 193 202 210 206 206 204 205 200 195 192 190 185 181 179 173 167 159 155 155 155 154 154 145 132 136 134
71 128 300 329 132 207 74 126 196 178 355 70 80 126 255 113 181 130 201 165 124 253 17 281 31 254 189 218 199 273 263 241 268 277 274 265 262 260 261 264 279 281 257 253 235 232 233 239 239 236 241 252 257 258 239 219 175 216 214 204 213 218 206 198 203 200 201 196 185 179 174 179 174 168 162 160 157 159 160 158 150 142 142 148 142 138
160 114 148 245 320 117 171 207 205 155 162 145 127 196 190 74 235 108 81 145 185 191 181 251 295 264 252 212 185 212 250 271 246 242 262 269 274 262 264 286 289 280 272 257 246 234 231 233 237 242 252 267 290 276 268 231 207 212 202 226 213 206 200 201 195 186 189 166 171 162 168 164 162 162 157 155 162 155 152 148 145 146 141 133 140 138
98 94 140 144 116 199 250 237 180 173 184 175 172 196 172 129 153 177 236 49 72 135 239 147 265 266 267 170 202 215 234 236 274 325 273 269 271 291 307 300 287 286 274 255 252 238 248 256 259 270 291 287 277 230 217 247 236 188 190 209 198 221 215 203 187 186 166 169 164 170 164 165 161 153 150 149 146 143 142 144 142 136 134 138 139 139
139 127 102 142 200 177 190 11 285 259 130 172 157 213 163 150 108 158 217 263 21 249 110 185 353 276 181 190 210 222 230 263 338 1 280 279 281 287 294 294 297 271 273 263 244 238 234 235 238 232 237 239 231 233 227 248 218 200 195 184 187 191 200 186 180 168 164 157 161 159 152 145 145 141 144 140 138 136 137 134 132 140 136 135 133 123
107 104 93 339 324 308 315 286 33 356 60 115 316 75 138 179 165 162 158 184 175 220 358 325 263 267 239 141 209 233 262 293 256 238 269 287 280 284 285 300 293 301 285 277 260 248 238 237 252 266 252 251 256 246 227 224 232 213 198 186 170 177 163 147 156 152 148 143 133 133 133 138 138 140 141 139 139 135 132 132 132 132 126 127 128 125
144 251 121 106 48 350 341 341 333 5 45 211 158 183 141 113 95 141 103 131 238 217 168 175 251 264 268 340 274 277 287 275 277 266 217 259 281 284 291 291 305 299 294 283 273 263 276 263 242 235 233 229 228 229 224 219 219 205 206 195 169 158 155 139 135 138 131 138 134 135 139 142 146 143 137 131 130 131 131 132 130 128 130 127 121 123
99 186 139 152 156 166 187 200 210 207 191 192 187 154 183 160 145 129 185 176 225 231 162 191 250 240 279 324 313 342 331 292 271 257 250 222 257 284 285 295 307 307 285 281 278 291 261 249 249 249 239 234 230 218 213 211 211 207 199 202 181 149 138 142 131 138 138 141 142 143 145 147 140 137 134 132 131 135 133 131 129 126 122 129 127 128
140 118 185 181 180 183 198 194 52 85 80 181 207 173 187 181 172 166 126 150 221 214 178 220 230 236 251 350 317 292 296 254 272 302 282 286 260 255 259 274 273 268 272 270 258 254 286 267 242 236 237 230 223 217 215 206 205 204 194 190 174 172 159 159 150 149 151 149 151 145 143 141 134 132 132 133 131 128 127 126 128 131 133 136 137 137
111 164 206 198 210 222 92 120 179 148 175 198 162 187 171 166 173 169 182 222 172 71 248 239 162 242 229 286 276 279 276 272 264 250 276 281 271 263 276 283 292 288 274 273 266 249 240 244 247 237 234 230 229 220 216 214 212 197 186 187 177 167 166 165 156 157 157 151 140 141 133 122 124 127 128 126 127 128 126 126 129 130 131 137 136 131
172 198 210 187 223 189 57 143 150 163 186 184 172 171 173 178 171 189 215 223 149 205 242 199 177 231 227 203 228 237 232 238 246 252 235 268 297 312 343 324 304 287 278 260 252 244 238 238 234 233 230 231 225 222 213 205 213 221 213 195 181 172 180 166 158 157 153 145 141 135 129 126 118 116 123 127 126 127 130 131 130 130 132 129 119 114
149 220 191 184 203 98 23 138 166 155 137 114 170 182 184 165 195 204 217 221 204 229 241 218 228 253 236 228 228 239 240 235 267 275 306 304 278 312 303 291 278 267 264 252 243 235 232 238 238 232 228 226 218 215 207 202 203 200 196 196 193 184 175 154 162 155 152 153 148 142 145 140 138 136 132 131 134 137 135 136 136 134 128 122 117 118
152 264 79 98 94 68 20 83 48 125 151 170 200 185 185 197 207 213 218 224 223 257 253 284 303 274 229 209 238 254 265 137 254 267 245 249 260 252 243 241 247 250 248 250 251 240 229 233 233 230 226 227 215 212 205 203 198 192 198 198 190 189 175 167 164 166 161 156 150 147 140 137 138 136 140 141 138 140 141 139 136 130 124 122 124 125
87 170 43 106 151 251 323 98 90 78 63 132 202 207 205 205 212 220 222 212 189 232 237 269 266 254 144 210 231 240 303 278 265 263 263 241 221 216 228 244 247 254 259 260 259 250 234 229 228 225 227 224 216 206 204 198 190 187 202 192 188 179 160 169 163 162 165 147 145 148 149 146 143 145 147 148 151 147 142 138 136 133 131 130 129 129
141 133 134 134 146 222 325 145 106 96 77 278 242 218 209 204 203 217 231 221 214 219 219 220 241 136 209 214 204 244 222 242 248 252 261 266 235 211 228 244 251 252 254 254 255 251 240 233 227 225 229 223 210 206 205 187 182 201 196 183 180 149 165 172 168 165 162 156 159 161 158 154 155 153 153 155 148 145 144 144 139 139 141 141 138 134
129 135 151 153 173 159 266 127 113 78 202 223 225 212 171 184 195 203 223 219 219 189 221 220 240 221 123 128 193 217 215 226 222 232 225 230 237 240 241 244 244 246 253 256 247 247 256 250 244 239 234 227 220 210 192 192 200 197 169 165 154 164 170 168 172 169 166 163 170 166 161 161 158 157 157 151 151 152 152 150 150 147 139 134 135 134
174 176 164 165 147 165 176 119 109 205 226 234 189 148 179 189 184 203 221 216 214 214 230 246 252 173 199 196 206 212 214 231 263 273 265 233 218 226 231 232 238 239 241 246 258 254 249 249 248 244 243 228 191 175 171 195 189 153 157 162 166 172 169 177 170 174 170 172 172 168 165 165 164 159 158 159 159 159 159 154 147 144 145 145 145 146
174 170 149 56 110 56 126 160 185 217 233 320 325 291 202 184 203 204 239 245 241 224 220 236 238 229 216 219 230 235 210 302 316 253 239 249 216 230 232 235 234 231 239 239 237 248 245 247 245 243 237 178 163 181 184 189 172 166 173 165 171 172 177 173 175 178 173 179 178 177 175 169 168 165 164 164 164 164 161 157 155 149 146 133 124 117
176 146 149 151 174 160 186 187 215 352 334 270 254 212 173 172 153 168 217 249 216 208 203 222 231 233 243 236 230 212 93 359 309 277 237 234 242 228 227 240 235 237 237 250 239 253 278 226 209 213 182 175 179 177 192 177 169 168 161 171 179 172 175 174 183 186 185 187 184 182 178 175 169 169 169 168 167 166 162 156 152 145 142 134 139 139
166 164 178 145 233 131 129 144 343 267 254 242 231 82 147 153 155 168 165 265 212 211 209 218 227 220 230 238 217 128 81 302 273 260 244 245 242 242 235 246 254 248 247 252 274 268 264 257 223 202 177 183 192 193 177 167 167 168 172 178 173 174 179 183 196 195 192 192 184 179 176 178 174 171 171 171 173 166 156 143 134 147 155 147 146 141
34 71 162 164 154 75 116 166 194 200 231 233 162 172 166 151 140 123 101 264 239 190 204 201 221 218 220 226 169 131 147 213 246 255 250 234 248 228 239 242 241 245 251 252 253 267 265 254 212 198 181 171 198 198 165 164 165 167 180 180 181 181 185 199 202 197 194 185 173 176 173 172 171 171 170 171 167 158 154 156 153 143 133 133 131 132
134 150 118 79 149 189 173 171 209 207 236 233 189 184 172 143 122 116 92 254 245 157 192 182 206 206 212 212 149 164 175 219 249 254 240 231 208 226 213 242 253 258 266 276 275 243 261 230 115 123 177 200 212 157 165 160 167 178 183 184 171 186 201 208 205 177 153 158 161 160 161 164 164 166 168 167 151 148 150 142 139 147 138 132 133 135
143 25 193 186 184 192 179 235 333 286 259 218 201 171 154 147 124 137 208 234 161 171 178 176 196 202 199 156 146 183 218 210 226 240 246 132 78 267 257 242 246 243 251 256 262 284 233 206 201 202 208 204 147 152 157 157 163 187 186 173 180 209 213 196 137 153 164 154 157 162 165 162 168 166 166 162 156 148 144 151 150 143 141 137 131 126
187 163 296 151 187 188 195 193 221 247 241 178 240 163 162 110 181 208 220 142 145 165 181 168 188 197 161 169 185 203 222 221 253 298 295 244 200 237 264 286 306 304 214 219 273 297 252 182 247 17 93 137 149 155 157 161 176 183 182 179 212 216 134 135 150 143 150 157 161 163 164 165 161 160 158 151 149 149 146 136 133 140 138 136 138 137
173 164 181 189 161 37 54 198 41 251 246 142 115 49 284 183 216 168 122 0 133 156 152 195 178 187 156 192 203 208 232 191 194 226 239 255 252 254 259 268 268 272 308 354 29 23 147 168 195 207 200 174 157 162 165 166 179 184 183 210 217 142 140 143 145 145 146 148 153 157 154 151 151 149 144 147 148 144 140 139 138 138 139 140 140 141
177 167 178 207 185 182 181 185 205 221 64 144 144 179 205 199 185 145 123 149 285 155 162 160 214 177 186 174 193 215 224 221 265 257 265 271 256 261 267 262 254 307 289 264 241 259 172 176 173 175 180 163 163 164 171 172 182 188 198 218 141 139 135 141 140 142 146 152 154 149 151 150 147 142 143 147 145 143 144 148 148 147 155 156 151 151
215 198 179 185 189 179 199 203 108 221 162 180 166 164 170 194 169 192 138 153 164 239 205 156 194 198 186 187 183 186 197 216 218 206 201 236 243 236 238 249 249 235 230 249 277 298 175 180 177 158 149 172 169 172 175 182 182 187 207 193 142 148 147 142 145 149 155 157 158 158 154 149 153 154 156 160 157 155 158 156 157 155 168 160 160 161
272 181 115 95 271 316 308 198 199 89 192 206 33 314 171 191 198 280 154 154 215 170 170 177 197 179 192 181 145 166 207 207 200 214 226 252 254 250 234 275 284 196 191 190 225 223 161 125 139 154 171 197 189 177 176 187 179 193 202 147 151 149 149 149 150 158 162 161 160 160 154 154 157 160 163 165 173 174 171 165 167 164 163 168 171 172
264 128 97 159 244 157 242 207 158 194 238 218 224 337 300 206 193 177 178 183 183 169 191 221 148 162 166 164 182 186 208 193 186 214 216 242 249 244 227 220 233 205 195 195 219 158 140 143 151 184 181 203 234 190 184 182 200 183 141 157 150 149 148 154 159 160 161 162 160 155 162 163 164 161 161 166 166 168 171 175 170 165 167 174 173 175
250 196 149 184 153 175 229 159 172 200 191 202 196 202 185 208 199 216 202 113 116 183 178 172 121 115 137 170 199 190 204 170 187 204 203 215 224 215 214 211 208 220 242 223 206 188 159 163 178 182 189 218 229 193 177 176 183 141 133 138 145 143 148 158 169 167 171 167 163 167 170 172 166 165 170 177 175 171 177 191 187 177 178 179 180 173
151 127 199 175 174 249 7 264 196 79 252 234 241 257 250 203 196 216 203 117 105 140 150 113 170 160 176 176 152 179 199 222 205 201 192 211 215 213 207 198 197 206 199 196 255 166 183 186 195 200 192 222 212 171 147 140 124 141 148 155 154 155 157 167 167 157 157 160 157 170 174 174 175 178 177 177 186 197 192 184 185 188 195 227 217 202
112 187 176 126 183 202 210 204 142 136 223 247 241 220 229 221 198 204 140 209 216 199 180 155 123 68 126 102 151 165 198 232 216 177 213 205 203 210 204 201 206 148 176 339 64 116 25 155 185 195 210 229 197 147 146 149 157 165 161 154 159 158 161 157 153 156 171 172 176 176 173 176 177 180 180 181 180 174 159 79 168 198 196 191 170 160
179 179 152 181 188 216 211 129 180 170 173 191 193 206 213 184 158 173 194 208 217 202 160 150 139 101 89 66 100 137 155 151 215 154 116 338 321 311 237 157 76 45 5 78 108 41 198 239 227 223 237 235 210 139 134 139 151 159 162 164 164 167 165 157 164 176 177 178 188 185 182 178 179 181 181 182 182 178 172 149 125 132 138 158 173 176